Regional Weather Roundup
Issued by NWS Upton, NY

Current Version | Previous Version | Graphics & Text | Print | Product List | Glossary Off
Versions: 1 2 3 4 5 6 7 8 9 10 11 12 13 14 15 16 17 18 19 20 21 22 23 24 25 26 27

000
ASUS41 KOKX 220509
RWROKX

REGIONAL WEATHER ROUNDUP
NATIONAL WEATHER SERVICE NEW YORK NY
100 AM EDT THU JUN 22 2017

NOTE: "FAIR" INDICATES FEW OR NO CLOUDS BELOW 12,000 FEET WITH NO
SIGNIFICANT WEATHER AND/OR OBSTRUCTIONS TO VISIBILITY.

NYZ071-072-176-178-NJZ106-104-220600-
NEW YORK CITY METRO AREA

CITY           SKY/WX    TMP DP  RH WIND       PRES   REMARKS
Central Park   CLEAR     73  61  65 W3        29.99R
Bronx Bot Gard   N/A     70  57  64 W3        29.98R
LaGuardia APRT PTCLDY    75  60  59 SW8       29.95R
Kennedy INTL   PTCLDY    70  67  90 SW10      29.96S
Breezy Point     N/A     66 N/A N/A W7          N/A
Newark/Liberty PTCLDY    71  62  73 SW7       29.96R
Teterboro      CLEAR     71  60  68 CALM      29.95R
$$

NYZ177-179-078>081-220600-
LONG ISLAND NEW YORK

CITY           SKY/WX    TMP DP  RH WIND       PRES   REMARKS
Jones Beach      N/A     66 N/A N/A W7          N/A
Matinecock PT  NOT AVBL
Farmingdale    NOT AVBL
MacArthur/ISP  CLEAR     65  63  93 CALM      29.95R
Shirley        CLEAR     65  64  97 CALM      29.95S
Mt Sinai Harb    N/A     64 N/A N/A CALM        N/A
Westhampton    CLEAR     62  58  86 NW3       29.97R
East Hampton   FAIR      61  59  92 CALM      29.94S
Montauk          N/A     66  63  90 CALM      29.95S
$$

NYZ052-065-067-220600-
HUDSON VALLEY

CITY           SKY/WX    TMP DP  RH WIND       PRES   REMARKS
White Plains   PTCLDY    66  57  72 W5        29.96R
Larchmont Harb   N/A     70 N/A N/A W3          N/A
Croton O-T Hud   N/A     66 N/A N/A E3          N/A
Newburgh       CLEAR     63  57  82 CALM      29.99R
Montgomery     CLEAR     60  57  89 E5        29.97S
Poughkeepsie   CLEAR     59  57  93 CALM      29.96R
Albany         CLEAR     62  50  64 CALM      29.97R
$$

NJZ001-105-106-008-010-013-015-019>022-104-220600-
NEW JERSEY

CITY           SKY/WX    TMP DP  RH WIND       PRES   REMARKS
Newark/Liberty PTCLDY    71  62  73 SW7       29.96R
Teterboro      CLEAR     71  60  68 CALM      29.95R
Caldwell       CLEAR     68  60  75 CALM      29.97S
Somerville     CLEAR     63  62  97 CALM      29.96R
Linden         FAIR      70  62  75 W6        29.97R
Perth Amboy      N/A     68 N/A N/A W9          N/A
Sussex         PTCLDY    60  59  96 CALM      29.99R
Andover          N/A     61  59  93 CALM      29.99R
Trenton        CLEAR     66  64  93 CALM      29.97S
Millville      CLOUDY    68  68 100 CALM      29.98S FOG
Atlantic City  NOT AVBL
Wrightstown    CLEAR     64  63  96 SW5       29.95S
Toms River     CLEAR     64  63  96 SW3       29.98S
Belmar         CLEAR     65  63  93 CALM      29.98S
$$

PAZ047>061-062-071-220600-
EASTERN PENNSYLVANIA

CITY           SKY/WX    TMP DP  RH WIND       PRES   REMARKS
Philadelphia   PTCLDY    71  66  84 SW6       29.99R
Allentown      CLEAR     64  61  90 CALM      29.98R
Scranton       CLEAR     61  55  81 SE5       30.00S
$$

CTZ002-004>006-009-010-012-RIZ004-006-007-MAZ004-011-015-220600-
SOUTHERN NEW ENGLAND
 IN CT

CITY           SKY/WX    TMP DP  RH WIND       PRES   REMARKS
Bradley INTL   CLEAR     64  54  69 CALM      29.95R
Hartford       CLEAR     64  60  87 CALM      29.95R
Danbury        CLEAR     59  58  96 CALM      29.98S
Wtrbury/Oxford CLEAR     61  50  67 CALM      29.98S
Bridgeport     CLEAR     68  60  75 N3        29.95R
Meriden        CLEAR     60  58  92 CALM      29.96R
New Haven      NOT AVBL
Chester        FAIR      64  59  82 CALM      29.96S
Groton         CLEAR     64  62  93 CALM      29.94R
Wilimantic     CLEAR     63  61  93 SW3       29.96R

 IN RI

CITY           SKY/WX    TMP DP  RH WIND       PRES   REMARKS
Providence     CLEAR     65  60  84 SW3       29.94R
Block Island   CLEAR     65  61  87 W8        29.95R
Westerly       CLEAR     65  63  93 CALM      29.95R
 IN MA

CITY           SKY/WX    TMP DP  RH WIND       PRES   REMARKS
Boston         CLEAR     70  51  51 W9        29.91R
Worcester      CLEAR     63  47  55 W13       29.95S
Westfield      NOT AVBL
Provincetown   CLEAR     59  57  93 W6        29.91S
Nantucket      PTCLDY    62  62 100 W13       29.92R FOG
$$

ANZ330-335-338-340-345-350-353-355-220600-
COASTAL MARINE OBSERVATIONS


STATION/POSITION TIME  SKY/WX   TEMP    WIND        PRES    VSBY  WAVE
                                AIR SEA DIR/SP/G                  HT/PER
                 (UTC)          (F)     (DEG/KT/KT) (MB)    (MI)  (FT/S)
NY HARB ENTRANCE 0350            67 63  250/ 10/ 10 1014.3          3/ 6
20 S FIRE ISLAND 0450            68 67  250/ 12/ 14 1014.0          4/ 6
GREAT SOUTH BAY  0430            71 75  270/ 14/ 17   N/A
23 SSW MONTAUK P 0350            65 62              1014.0          4/ 6
15 E BARNEGAT LI 0430               63                N/A           3/ 6
HUDSON CANYON    0350            67 65  220/ 14/ 16 1014.4          4/ 6
KINGS POINT      0424            72 64     CALM     1014.0
EXECUTION ROCKS  0445            69      80/  2/  4   N/A
CENTRAL LI SOUND 0430            69     220/  4/  6   N/A           1
EASTERN LI SOUND NOT AVBL
ROBBINS REEF     0430                   260/ 13/ 16 1014.9
$$


>>>>>>>>>>>>>>>>>>>>>>>>>>>> KEY <<<<<<<<<<<<<<<<<<<<<<<<<<<
>                                                          <
>     SKY/WX - Sky Condition/Present Weather               <
>     TMP    - Temperature in Fahrenheit                   <
>     DP     - Dew Point in Fahrenheit                     <
>     RH     - Relative Humidity in Percent                <
>     WIND   - Direction (from) and Speed in MPH           <
>     PRES   - Mean Sea Level Pressure (inches of Hg)      <
>     WCI    - Wind Chill Index                            <
>     VSB    - VISIBILITY IN MILES                         <
>     HX     - HEAT INDEX                                  <
>     TC     - TEMPERATURE IN CELSIUS                      <
>     VRB    - VARIABLE WIND DIRECTION                     <
>                                                          <
>>>>>>>>>>>>>>>>>>>>>>>>>>>> KEY <<<<<<<<<<<<<<<<<<<<<<<<<<<




USA.gov is the U.S. government's official web portal to all federal, state and local government web resources and services.